When you browse on this site, cookies collect data to enhance your experience and personalize the content and advertising you see.
Visit our Privacy Policy to learn more. By continuing to use the site, you agree to this use of cookies and data.
  • In Hungary
  • List of Countries
  • For 7 days
  • Water Temperature
  • Satellite Maps
  • Weather Map
  • News
  • Weather Widgets
  • user-avatar
    Login

    Hourly Weather Panggezhuang

    Today, 24 April, Wednesday

    Time Temperature Precipitation Wind Pressure Humidity
    00:00 +20°C° 0 mm 3 mps 756 mmHg 68%
    01:00 +19°C° 0 mm 2 mps 756 mmHg 73%
    02:00 +18°C° 0 mm 2 mps 755 mmHg 79%
    03:00 +17°C° 0 mm 2 mps 755 mmHg 80%
    04:00 +17°C° 0 mm 2 mps 755 mmHg 81%
    05:00 +17°C° 0 mm 3 mps 755 mmHg 83%
    06:00 +17°C° 0.1 mm 3 mps 756 mmHg 81%
    07:00 +18°C° 0.1 mm 4 mps 756 mmHg 78%
    08:00 +18°C° 0 mm 2 mps 756 mmHg 86%
    09:00 +18°C° 0.1 mm 4 mps 757 mmHg 70%
    10:00 +19°C° 0.1 mm 6 mps 757 mmHg 53%
    11:00 +18°C° 0.1 mm 7 mps 758 mmHg 36%
    12:00 +17°C° 0 mm 7 mps 758 mmHg 32%
    13:00 +16°C° 0 mm 7 mps 759 mmHg 27%
    14:00 +13°C° 0 mm 8 mps 759 mmHg 35%
    15:00 +12°C° 0 mm 7 mps 759 mmHg 38%
    16:00 +13°C° 0 mm 6 mps 759 mmHg 41%
    17:00 +12°C° 0 mm 5 mps 760 mmHg 44%
    18:00 +12°C° 0.1 mm 5 mps 760 mmHg 50%
    19:00 +10°C° 0.1 mm 5 mps 760 mmHg 57%
    20:00 +8°C° 0 mm 6 mps 760 mmHg 66%
    21:00 +7°C° 4.1 mm 5 mps 761 mmHg 73%
    22:00 +6°C° 4.1 mm 4 mps 761 mmHg 80%
    23:00 +6°C° 4.1 mm 2 mps 761 mmHg 87%

    Tomorrow, 25 April, Thursday

    Time Temperature Precipitation Wind Pressure Humidity
    00:00 +5°C° 1.2 mm 3 mps 761 mmHg 84%
    01:00 +7°C° 1.2 mm 3 mps 761 mmHg 81%
    02:00 +7°C° 1.2 mm 3 mps 761 mmHg 78%
    03:00 +7°C° 0 mm 3 mps 761 mmHg 77%
    04:00 +7°C° 0 mm 2 mps 761 mmHg 76%
    05:00 +7°C° 0 mm 2 mps 761 mmHg 75%
    06:00 +8°C° 0 mm 2 mps 762 mmHg 69%
    07:00 +9°C° 0 mm 3 mps 762 mmHg 63%
    08:00 +10°C° 0 mm 3 mps 762 mmHg 57%
    09:00 +12°C° 0 mm 3 mps 762 mmHg 47%
    10:00 +13°C° 0 mm 3 mps 762 mmHg 38%
    11:00 +16°C° 0 mm 3 mps 762 mmHg 28%
    12:00 +17°C° 0 mm 3 mps 762 mmHg 26%
    13:00 +18°C° 0 mm 3 mps 762 mmHg 25%
    14:00 +19°C° 0 mm 3 mps 761 mmHg 24%
    15:00 +18°C° 0 mm 3 mps 761 mmHg 24%
    16:00 +18°C° 0 mm 2 mps 761 mmHg 25%
    17:00 +18°C° 0 mm 2 mps 760 mmHg 26%
    18:00 +17°C° 0 mm 2 mps 761 mmHg 28%
    19:00 +15°C° 0 mm 1 mps 761 mmHg 31%
    20:00 +14°C° 0 mm 1 mps 761 mmHg 34%
    21:00 +14°C° 0 mm 1 mps 762 mmHg 35%
    22:00 +13°C° 0 mm 1 mps 762 mmHg 36%
    23:00 +13°C° 0 mm 2 mps 762 mmHg 37%

    Day after tomorrow, 26 April, Friday

    Time Temperature Precipitation Wind Pressure Humidity
    00:00 +13°C° 0 mm 2 mps 762 mmHg 39%
    01:00 +13°C° 0 mm 2 mps 762 mmHg 40%
    02:00 +12°C° 0 mm 2 mps 762 mmHg 42%
    03:00 +12°C° 0 mm 2 mps 763 mmHg 48%
    04:00 +12°C° 0 mm 2 mps 763 mmHg 54%
    05:00 +10°C° 0 mm 3 mps 764 mmHg 60%
    06:00 +11°C° 0 mm 3 mps 764 mmHg 59%
    07:00 +12°C° 0 mm 3 mps 765 mmHg 58%
    08:00 +12°C° 0 mm 3 mps 765 mmHg 57%
    09:00 +14°C° 0 mm 3 mps 765 mmHg 49%
    10:00 +16°C° 0 mm 3 mps 765 mmHg 40%
    11:00 +18°C° 0 mm 2 mps 766 mmHg 32%
    12:00 +19°C° 0 mm 2 mps 765 mmHg 29%
    13:00 +21°C° 0 mm 1 mps 765 mmHg 27%
    14:00 +22°C° 0 mm 1 mps 764 mmHg 25%
    15:00 +22°C° 0 mm 1 mps 764 mmHg 25%
    16:00 +21°C° 0 mm 1 mps 764 mmHg 25%
    17:00 +21°C° 0 mm 1 mps 763 mmHg 25%
    18:00 +20°C° 0 mm 1 mps 764 mmHg 29%
    19:00 +17°C° 0 mm 2 mps 764 mmHg 32%
    20:00 +16°C° 0 mm 2 mps 764 mmHg 36%
    21:00 +16°C° 0 mm 2 mps 765 mmHg 40%
    22:00 +15°C° 0 mm 2 mps 765 mmHg 44%
    23:00 +14°C° 0 mm 2 mps 765 mmHg 48%

    27 April, Saturday

    Time Temperature Precipitation Wind Pressure Humidity
    00:00 +14°C° 0 mm 2 mps 765 mmHg 51%
    01:00 +14°C° 0 mm 2 mps 765 mmHg 53%
    02:00 +13°C° 0 mm 2 mps 765 mmHg 56%
    03:00 +13°C° 0 mm 2 mps 765 mmHg 54%
    04:00 +12°C° 0 mm 2 mps 765 mmHg 53%
    05:00 +12°C° 0 mm 2 mps 765 mmHg 52%
    06:00 +13°C° 0 mm 2 mps 765 mmHg 47%
    07:00 +14°C° 0 mm 3 mps 765 mmHg 41%
    08:00 +16°C° 0 mm 3 mps 765 mmHg 36%
    09:00 +17°C° 0 mm 4 mps 765 mmHg 35%
    10:00 +19°C° 0 mm 5 mps 764 mmHg 33%
    11:00 +20°C° 0 mm 6 mps 764 mmHg 31%
    12:00 +20°C° 0 mm 6 mps 763 mmHg 29%
    13:00 +21°C° 0 mm 6 mps 763 mmHg 27%
    14:00 +22°C° 0 mm 6 mps 762 mmHg 25%
    15:00 +21°C° 0 mm 6 mps 762 mmHg 26%
    16:00 +21°C° 0 mm 6 mps 761 mmHg 26%
    17:00 +21°C° 0 mm 6 mps 761 mmHg 27%
    18:00 +19°C° 0 mm 5 mps 761 mmHg 31%
    19:00 +16°C° 0 mm 5 mps 762 mmHg 35%
    20:00 +15°C° 0 mm 4 mps 762 mmHg 40%
    21:00 +14°C° 0 mm 4 mps 762 mmHg 45%
    22:00 +13°C° 0 mm 4 mps 763 mmHg 50%
    23:00 +12°C° 0 mm 4 mps 763 mmHg 54%

    28 April, Sunday

    Time Temperature Precipitation Wind Pressure Humidity
    00:00 +11°C° 0 mm 3 mps 763 mmHg 59%
    01:00 +10°C° 0 mm 3 mps 762 mmHg 64%
    02:00 +10°C° 0 mm 3 mps 762 mmHg 68%
    03:00 +9°C° 0 mm 2 mps 762 mmHg 71%
    04:00 +9°C° 0 mm 2 mps 762 mmHg 74%
    05:00 +8°C° 0 mm 2 mps 762 mmHg 78%
    06:00 +9°C° 0 mm 2 mps 762 mmHg 72%
    07:00 +12°C° 0 mm 2 mps 762 mmHg 66%
    08:00 +12°C° 0 mm 3 mps 762 mmHg 60%
    09:00 +14°C° 0 mm 3 mps 762 mmHg 55%
    10:00 +16°C° 0 mm 3 mps 761 mmHg 50%
    11:00 +18°C° 0 mm 4 mps 761 mmHg 44%
    12:00 +19°C° 0 mm 4 mps 760 mmHg 41%
    13:00 +21°C° 0 mm 4 mps 760 mmHg 39%
    14:00 +22°C° 0 mm 4 mps 759 mmHg 36%
    15:00 +22°C° 0 mm 4 mps 759 mmHg 37%
    16:00 +22°C° 0 mm 4 mps 758 mmHg 37%
    17:00 +22°C° 0 mm 4 mps 758 mmHg 38%
    18:00 +21°C° 0 mm 4 mps 758 mmHg 41%
    19:00 +19°C° 0 mm 4 mps 758 mmHg 45%
    20:00 +18°C° 0 mm 4 mps 758 mmHg 48%
    21:00 +17°C° 0 mm 3 mps 758 mmHg 50%
    22:00 +16°C° 0 mm 3 mps 759 mmHg 52%
    23:00 +16°C° 0 mm 2 mps 759 mmHg 54%

    29 April, Monday

    Time Temperature Precipitation Wind Pressure Humidity
    00:00 +15°C° 0 mm 2 mps 758 mmHg 56%
    01:00 +15°C° 0 mm 2 mps 758 mmHg 57%
    02:00 +15°C° 0 mm 1 mps 758 mmHg 59%
    03:00 +15°C° 0 mm 1 mps 758 mmHg 60%
    04:00 +14°C° 0 mm 1 mps 757 mmHg 62%
    05:00 +14°C° 0 mm 1 mps 757 mmHg 63%
    06:00 +16°C° 0 mm 1 mps 757 mmHg 60%
    07:00 +18°C° 0 mm 1 mps 758 mmHg 57%
    08:00 +18°C° 0 mm 2 mps 758 mmHg 54%
    09:00 +20°C° 0 mm 2 mps 757 mmHg 50%
    10:00 +23°C° 0 mm 2 mps 757 mmHg 47%
    11:00 +24°C° 0 mm 3 mps 757 mmHg 43%
    12:00 +26°C° 0 mm 3 mps 756 mmHg 40%
    13:00 +27°C° 0 mm 3 mps 755 mmHg 37%
    14:00 +29°C° 0 mm 4 mps 754 mmHg 35%
    15:00 +29°C° 0 mm 4 mps 753 mmHg 35%
    16:00 +29°C° 0 mm 4 mps 753 mmHg 35%
    17:00 +29°C° 0 mm 5 mps 752 mmHg 35%
    18:00 +27°C° 0.2 mm 4 mps 753 mmHg 41%
    19:00 +25°C° 0.2 mm 3 mps 753 mmHg 47%
    20:00 +22°C° 0.2 mm 3 mps 754 mmHg 54%
    21:00 +21°C° 0.1 mm 4 mps 755 mmHg 44%
    22:00 +20°C° 0.1 mm 6 mps 756 mmHg 35%
    23:00 +17°C° 0.1 mm 8 mps 757 mmHg 26%
    Show more